Regional Weather Roundup
Issued by NWS

Home | Current Version | Previous Version | Graphics & Text | Print | Product List | Glossary On
Versions: 1 2 3 4 5 6 7 8 9 10 11 12 13 14 15 16 17 18 19 20 21 22 23 24 25 26 27 28 29 30 31 32 33 34 35 36 37 38 39 40 41 42 43 44 45 46 47 48 49 50
000
ASUS43 KDMX 231606
RWRIA

WEATHER ROUNDUP FOR IOWA
NATIONAL WEATHER SERVICE DES MOINES IA
1100 AM CDT SUN JUL 23 2017

NOTE: "FAIR" INDICATES FEW OR NO CLOUDS BELOW 12,000 FEET WITH NO
SIGNIFICANT WEATHER AND/OR OBSTRUCTIONS TO VISIBILITY.

* - THESE STATIONS ARE NOT NWS STATIONS...THUS NOT UNDER NWS
QUALITY CONTROL.  THEY ALSO DO NOT REPORT WEATHER SUCH
AS PRECIPITATION OR FOG.

IAZ001>003-012>014-020>022-031>034-043>046-231700-
   NORTHWEST IOWA

CITY           SKY/WX    TMP DP  RH WIND       PRES   REMARKS
CARROLL *      SUNNY     79  66  65 N10       29.96R HX  81
CHEROKEE *     SUNNY     77  63  61 N12       29.99R
DENISON *      MOSUNNY   81  64  57 N9        29.99R HX  82
ORANGE CITY *  SUNNY     73  63  68 N9        30.01R
SHELDON *      SUNNY     75  63  64 N9        29.99R
SIOUX CITY     SUNNY     82  60  47 N8        29.99R HX  82
SPENCER        SUNNY     76  60  57 N14       29.98S
STORM LAKE *   SUNNY     77  63  61 N10       29.98S
$$

IAZ055>058-069>071-079>083-090>094-231700-
   SOUTHWEST IOWA

CITY           SKY/WX    TMP DP  RH WIND       PRES   REMARKS
ATLANTIC *     SUNNY     82  73  74 NW8       29.95S HX  88
AUDUBON *      SUNNY     81  68  65 N7        29.98R HX  83
CLARINDA *     CLOUDY    82  77  83 N8G15     29.97S HX  91
COUNCIL BLFS * SUNNY     82  72  69 VRB6      29.97S HX  87
CRESTON *      SUNNY     84  72  65 NW14      29.97R HX  89
HARLAN  *      SUNNY     82  70  65 N9        30.00R HX  86
LAMONI         SUNNY     85  75  72 W13       29.93S HX  93
RED OAK *      SUNNY     82  73  74 N7        29.97R HX  88
SHENANDOAH *   CLOUDY    79  75  89 N8        29.97R HX  82
$$

IAZ047>049-059>061-072>074-084-231700-
   CENTRAL IOWA

CITY           SKY/WX    TMP DP  RH WIND       PRES   REMARKS
AMES           SUNNY     81  67  62 N13       29.92S HX  83
ANKENY *       SUNNY     82  68  61 NW14      29.93R HX  85
BOONE *        SUNNY     81  63  54 N10G18    29.93S HX  82
CHARITON *     SUNNY     86  70  58 NW10      29.92R HX  90
DES MOINES     SUNNY     85  69  58 NW13      29.91R HX  89
GRINNELL*      SUNNY     81  69  67 W16       29.91R HX  84
KNOXVILLE *    SUNNY     84  70  61 NW13      29.90R HX  88
MARSHALLTOWN   SUNNY     82  68  62 NW20      29.89S HX  85
NEWTON *       SUNNY     81  68  65 NW17      29.91R HX  83
PELLA *        SUNNY     85  68  56 NW14G21   29.91R HX  88
$$

IAZ004>006-015-016-023>025-035-036-231700-
   NORTH CENTRAL IOWA

CITY           SKY/WX    TMP DP  RH WIND       PRES   REMARKS
ALGONA *       SUNNY     75  61  60 N13G20    29.96R
ESTHERVILLE    SUNNY     73  61  65 N13G23    29.97R
FORT DODGE *   SUNNY     77  63  61 NW9       29.96R
MASON CITY     SUNNY     76  61  59 N13       29.95R
FOREST CITY *    N/A     75  61  60 NW13      29.95R
WEBSTER CITY * SUNNY     77  64  65 NW8G15    29.93R
IOWA FALLS *     N/A     78  65  63 NW10      29.94R HX  80
$$

IAZ007>011-017>019-026>030-037>042-050>054-066-231700-
   NORTHEAST IOWA

CITY           SKY/WX    TMP DP  RH WIND       PRES   REMARKS
CEDAR RAPIDS   SUNNY     84  74  71 W16       29.85F HX  91
CHARLES CITY * SUNNY     77  64  65 NW15G22   29.91R
DECORAH *      PTSUNNY   79  61  53 N7        29.86R HX  80
DUBUQUE        SUNNY     81  71  71 W10       29.85F HX  85
MONTICELLO *   SUNNY     84  73  70 W10       29.84S HX  91
OELWEIN *        N/A    N/A N/A N/A MISG        N/A
WATERLOO       SUNNY     78  68  71 NW14      29.87R HX  80
$$

IAZ064-065-067-068-078-231700-
   EAST CENTRAL IOWA

CITY           SKY/WX    TMP DP  RH WIND       PRES   REMARKS
DAVENPORT      SUNNY     83  73  72 W7        29.87S HX  89
IOWA CITY      SUNNY     86  72  62 W17G23    29.87R HX  92
MT. PLEASANT * SUNNY     85  69  58 W13       29.88R HX  89
MUSCATINE *    SUNNY     86  72  62 NW13      29.86R HX  92
QUAD CITIES    SUNNY     85  73  67 W7        29.85R HX  91
$$

IAZ062-063-075>077-085>089-095>099-231700-
   SOUTHEAST IOWA

CITY           SKY/WX    TMP DP  RH WIND       PRES   REMARKS
BURLINGTON     MOSUNNY   86  76  71 NW10      29.87R HX  96
FAIRFIELD *    SUNNY     84  73  70 NW10G17   29.88R HX  91
FORT MADISON * MOSUNNY   84  77  79 W10       29.89R HX  94
KEOKUK *       MOSUNNY   86  75  70 W9G18     29.88R HX  95
OSKALOOSA *      N/A     84  70  62 NW13G18   29.90R HX  89
CENTERVILLE *    N/A     86  73  66 W10       29.93R HX  93
OTTUMWA        SUNNY     88  69  53 W15       29.89S HX  92
WASHINGTON *   SUNNY     84  73  70 NW16      29.88S HX  91
$$

ABBREVIATIONS USED IN REMARKS
   TC - TEMPERATURES IN CELSIUS
  WCI - WIND CHILL INDEX
   HX - HEAT INDEX
  VSB - VISIBILITY
$$





USA.gov is the U.S. government's official web portal to all federal, state and local government web resources and services.